Regional Weather Roundup
Issued by NWS

Home | Current Version | Previous Version | Graphics & Text | Print | Product List | Glossary Off
Versions: 1 2 3 4 5 6 7 8 9 10 11 12 13 14 15 16 17 18 19 20 21 22 23 24 25 26 27 28 29 30 31 32 33 34 35 36 37 38 39 40 41 42 43 44 45 46 47 48 49 50

000
ASUS43 KOAX 280510
RWRNE

WEATHER ROUNDUP FOR NEBRASKA
NATIONAL WEATHER SERVICE OMAHA NE
1200 AM CDT SAT MAY 28 2016

NOTES: SATELLITE DATA IS BEING USED TO AUGMENT CLOUD COVER ABOVE
       12000 FEET.
       "FAIR" INDICATES FEW OR NO CLOUDS BELOW 12,000 FEET WITH NO
       SIGNIFICANT WEATHER AND/OR OBSTRUCTIONS TO VISIBILITY.

  * THESE STATIONS DO NOT REPORT WEATHER SUCH AS RAIN...SNOW OR FOG.

NEZ001>004-019>022-054>056-280600-
NEBRASKA PANHANDLE

CITY           SKY/WX    TMP DP  RH WIND       PRES   REMARKS
SCOTTSBLUFF    CLOUDY    48  43  82 N6        29.91R
ALLIANCE       CLEAR     44  43  96 CALM      29.89S
CHADRON        MOCLDY    48  43  82 S3        29.88S
KIMBALL        CLOUDY    46  44  94 W8        29.93F
SIDNEY         CLEAR     45  43  93 W8        29.91
$$

NEZ057>060-069>072-079>082-280600-
SOUTHWEST NEBRASKA

CITY           SKY/WX    TMP DP  RH WIND       PRES   REMARKS
NORTH PLATTE   CLOUDY    52  51  97 NW6       29.80S
IMPERIAL       PTCLDY    52  48  86 NW10      29.83F
LEXINGTON      TSTM      58  55  89 N7        29.78R
MCCOOK         MOCLDY    55  50  83 CALM      29.78R
OGALLALA       CLOUDY    52  49  89 NW10      29.84F
$$

NEZ005>010-023>029-035>040-094-280600-
NORTH CENTRAL NEBRASKA

CITY           SKY/WX    TMP DP  RH WIND       PRES   REMARKS
VALENTINE      CLOUDY    57  50  77 N5        29.83S
AINSWORTH      MOCLDY    56  52  85 N6        29.82S
BROKEN BOW     HVY RAIN  56  55  97 E6        29.79S FOG
O`NEILL        MOCLDY    64  59  84 N10       29.76F
ORD            LGT RAIN  58  56  93 NE10      29.76F
THEDFORD       CLOUDY    57  51  80 N5        29.83R
$$

NEZ041-046>049-061>064-073>077-083>087-280600-
SOUTH CENTRAL NEBRASKA

CITY           SKY/WX    TMP DP  RH WIND       PRES   REMARKS
GRAND ISLAND   CLOUDY    59  54  83 NE12      29.73S
AURORA         CLOUDY    60  59  97 NE16      29.70F
HASTINGS       CLOUDY    59  53  80 CALM      29.74R
HEBRON         CLOUDY    58  57  98 E7        29.73F
HOLDREGE       CLOUDY    60  57  91 N7        29.75R
KEARNEY *      CLOUDY    59  54  82 E13       29.75S
YORK           CLOUDY    59  55  88 NE10      29.70F
$$

NEZ011>018-030>034-042>045-280600-
NORTHEAST NEBRASKA

CITY           SKY/WX    TMP DP  RH WIND       PRES   REMARKS
NORFOLK        RAIN      58  56  93 S6        29.76F FOG
ALBION         RAIN      57  53  85 W7        29.75F
BLAIR          LGT RAIN  61  60  97 SW7       29.74F
FREMONT        LGT RAIN  58  57  96 NW8       29.74F
TEKAMAH        LGT RAIN  62  59  90 SW14      29.72F
WAYNE          TSTM      61  60  94 S5        29.78R
$$

NEZ050>053-065>068-078-088>093-280600-
SOUTHEAST NEBRASKA

CITY           SKY/WX    TMP DP  RH WIND       PRES   REMARKS
LINCOLN        CLOUDY    62  58  86 N6        29.73F
OMAHA EPPLEY   LGT RAIN  63  59  87 SW6       29.74F
BEATRICE       CLOUDY    59  56  92 N7        29.74S
FALLS CITY     LGT RAIN  62  59  90 CALM      29.76R
NEBRASKA CITY  LGT RAIN  60  60 100 CALM      29.75F
PLATTSMOUTH    LGT RAIN  63  61  94 W6        29.74F
$$

NEZ044-045-051>053-067-280600-
OMAHA AREA

CITY           SKY/WX    TMP DP  RH WIND       PRES   REMARKS
OMAHA EPPLEY   LGT RAIN  63  59  87 SW6       29.74F
BLAIR          LGT RAIN  61  60  97 SW7       29.74F
FREMONT        LGT RAIN  58  57  96 NW8       29.74F
MILLARD        CLOUDY    63  60  91 NW3       29.74F
OFFUTT AFB     LGT RAIN  62  61  96 W6        29.73F
PLATTSMOUTH    LGT RAIN  63  61  94 W6        29.74F
WAHOO          LGT RAIN  60  56  87 N13       29.73F
$$




USA.gov is the U.S. government's official web portal to all federal, state and local government web resources and services.